Location: Asheville, NC
(35.6000°N, 82.5500°W)
Time: 20:11:44
(UTC-04:00)

Vanguard 2 - Pass Details

Date: 09 March 2018
Orbit: 554 x 2939 km, 32.9° (Epoch: 24 June)

Event Time Altitude Azimuth Distance (km) Brightness Sun altitude
Rises 18:29:38 0° 284° (WNW) 6,591 14.0 -0.2°
Reaches altitude 10° 18:34:47 10° 278° (W) 5,341 13.7 -1.3°
Maximum altitude 18:47:46 37° 218° (SW) 2,777 10.8 -3.9°
Drops below altitude 10° 18:56:26 10° 155° (SSE) 3,558 10.7 -5.7°
Sets 18:59:10 0° 146° (SE) 4,240 11.0 -6.2°
